AFL1479 UNAA-UUEE

Flight info

Callsign AFL1479
Flight time 4h 43m
Altitude 34000
Route DOREM1C DOREM A308 OSNAB G825 BEDNI B926 GISMA M864 NIBOD/K0854F360 M864 KERUN P164 IDMOR M864 IBROT T535 URIDU L158 DIMGI DIMGI3E
Aircraft A321/M-SADIE2E3FHJ1RWGY/LB1U1

Departure

Time 2026-04-22 03:08
Airport Abakan International Airport (UNAA)

Arrival

Time 2026-04-22 07:51
Airport Sheremetyevo International Airport (UUEE)
Time Latitude Longitude Altitude Speed Heading
2026-04-22 02:20 53.74890 91.39964 805 ft 0 kts 162°
2026-04-22 03:04 53.74880 91.39969 798 ft 4 kts 162°
2026-04-22 03:04 53.74846 91.39972 798 ft 4 kts 205°
2026-04-22 03:04 53.74831 91.39935 798 ft 5 kts 245°
2026-04-22 03:05 53.74816 91.39847 798 ft 9 kts 264°
2026-04-22 03:05 53.74852 91.39795 798 ft 7 kts 341°
2026-04-22 03:05 53.74910 91.39762 798 ft 12 kts 342°
2026-04-22 03:05 53.74999 91.39714 798 ft 13 kts 342°
2026-04-22 03:06 53.75085 91.39667 798 ft 13 kts 342°
2026-04-22 03:06 53.75166 91.39623 798 ft 12 kts 342°
2026-04-22 03:06 53.75241 91.39581 798 ft 11 kts 342°
2026-04-22 03:06 53.75299 91.39542 798 ft 6 kts 316°
2026-04-22 03:07 53.75290 91.39513 798 ft 3 kts 214°
2026-04-22 03:07 53.75256 91.39489 797 ft 12 kts 204°
2026-04-22 03:07 53.75036 91.39318 796 ft 70 kts 205°
2026-04-22 03:07 53.74364 91.38795 802 ft 139 kts 204°
2026-04-22 03:08 53.73318 91.37985 929 ft 182 kts 207°
2026-04-22 03:08 53.72195 91.37120 1828 ft 176 kts 205°
2026-04-22 03:08 53.71079 91.36260 2666 ft 176 kts 205°
2026-04-22 03:08 53.69944 91.35378 3085 ft 187 kts 205°
2026-04-22 03:09 53.68697 91.34411 3280 ft 209 kts 205°
2026-04-22 03:09 53.67331 91.33349 3642 ft 220 kts 206°
2026-04-22 03:09 53.65937 91.32268 4267 ft 220 kts 208°
2026-04-22 03:09 53.64555 91.31200 5023 ft 217 kts 208°
2026-04-22 03:10 53.63180 91.30127 5629 ft 218 kts 212°
2026-04-22 03:10 53.62060 91.28522 6210 ft 213 kts 239°
2026-04-22 03:10 53.61529 91.26248 6822 ft 208 kts 265°
2026-04-22 03:10 53.61697 91.23859 7415 ft 207 kts 291°
2026-04-22 03:11 53.62512 91.21862 8015 ft 210 kts 313°
2026-04-22 03:11 53.63586 91.20124 8452 ft 222 kts 313°
2026-04-22 03:11 53.64754 91.18215 8646 ft 246 kts 313°
2026-04-22 03:11 53.66012 91.16165 9225 ft 254 kts 313°
2026-04-22 03:12 53.67291 91.14084 10005 ft 257 kts 313°
2026-04-22 03:12 53.69999 91.09649 10688 ft 293 kts 313°
2026-04-22 03:12 53.71510 91.07158 10829 ft 315 kts 313°
2026-04-22 03:13 53.73132 91.04486 11042 ft 333 kts 313°
2026-04-22 03:13 53.74667 91.01504 11579 ft 339 kts 302°
2026-04-22 03:13 53.75918 90.98120 12325 ft 340 kts 301°
2026-04-22 03:13 53.77150 90.94748 13049 ft 343 kts 300°
2026-04-22 03:14 53.78405 90.91294 13751 ft 346 kts 300°
2026-04-22 03:14 53.79667 90.87810 14350 ft 349 kts 300°
2026-04-22 03:14 53.80940 90.84284 14941 ft 352 kts 300°
2026-04-22 03:14 53.82221 90.80737 15527 ft 355 kts 300°
2026-04-22 03:15 53.83518 90.77158 16114 ft 358 kts 300°
2026-04-22 03:15 53.84818 90.73553 16688 ft 360 kts 300°
2026-04-22 03:15 53.86125 90.69906 17267 ft 363 kts 300°
2026-04-22 03:15 53.87445 90.66232 17834 ft 366 kts 300°
2026-04-22 03:16 53.88759 90.62579 18396 ft 369 kts 300°
2026-04-22 03:16 53.90111 90.58860 18884 ft 371 kts 300°
2026-04-22 03:16 53.91476 90.55124 19382 ft 373 kts 301°
2026-04-22 03:16 53.92851 90.51368 19862 ft 375 kts 301°
2026-04-22 03:17 53.94234 90.47580 20317 ft 379 kts 301°
2026-04-22 03:17 53.95625 90.43762 20810 ft 381 kts 300°
2026-04-22 03:17 53.97017 90.39926 21307 ft 383 kts 300°
2026-04-22 03:17 53.98416 90.36053 21796 ft 385 kts 300°
2026-04-22 03:18 53.99819 90.32165 22279 ft 387 kts 300°
2026-04-22 03:18 54.01212 90.28297 22739 ft 390 kts 300°
2026-04-22 03:18 54.02631 90.24362 23198 ft 392 kts 300°
2026-04-22 03:18 54.04059 90.20404 23633 ft 394 kts 300°
2026-04-22 03:19 54.05495 90.16412 24026 ft 396 kts 300°
2026-04-22 03:19 54.06932 90.12406 24417 ft 398 kts 300°
2026-04-22 03:19 54.08375 90.08371 24795 ft 399 kts 300°
2026-04-22 03:19 54.09819 90.04325 25188 ft 401 kts 300°
2026-04-22 03:20 54.11271 90.00251 25590 ft 403 kts 300°
2026-04-22 03:20 54.12734 89.96146 25937 ft 405 kts 300°
2026-04-22 03:20 54.14195 89.92028 26317 ft 407 kts 300°
2026-04-22 03:20 54.15663 89.87873 26759 ft 409 kts 300°
2026-04-22 03:21 54.17136 89.83710 27145 ft 411 kts 300°
2026-04-22 03:21 54.18617 89.79532 27654 ft 410 kts 300°
2026-04-22 03:21 54.20089 89.75391 28217 ft 407 kts 300°
2026-04-22 03:21 54.21555 89.71266 28792 ft 404 kts 300°
2026-04-22 03:22 54.22991 89.67217 29296 ft 402 kts 300°
2026-04-22 03:22 54.24454 89.63083 29800 ft 400 kts 300°
2026-04-22 03:22 54.25871 89.59067 30370 ft 396 kts 299°
2026-04-22 03:22 54.27283 89.55046 30824 ft 393 kts 299°
2026-04-22 03:23 54.28684 89.51051 31258 ft 391 kts 299°
2026-04-22 03:23 54.30077 89.47067 31671 ft 389 kts 298°
2026-04-22 03:23 54.31459 89.43109 32088 ft 387 kts 298°
2026-04-22 03:23 54.32837 89.39159 32486 ft 385 kts 298°
2026-04-22 03:24 54.34209 89.35223 32872 ft 383 kts 298°
2026-04-22 03:24 54.35571 89.31313 33313 ft 381 kts 298°
2026-04-22 03:24 54.36929 89.27410 33703 ft 380 kts 297°
2026-04-22 03:24 54.38280 89.23519 34039 ft 379 kts 297°
2026-04-22 03:25 54.40961 89.15768 34099 ft 375 kts 297°
2026-04-22 03:25 54.43604 89.08115 34088 ft 375 kts 297°
2026-04-22 03:26 54.46258 89.00406 34106 ft 375 kts 297°
2026-04-22 03:26 54.48912 88.92678 34068 ft 375 kts 297°
2026-04-22 03:27 54.51566 88.84919 34099 ft 377 kts 297°
2026-04-22 03:27 54.54205 88.77184 34091 ft 377 kts 297°
2026-04-22 03:28 54.56816 88.69364 34067 ft 375 kts 292°
2026-04-22 03:28 54.58258 88.60816 34065 ft 372 kts 278°
2026-04-22 03:29 54.59000 88.51992 34062 ft 372 kts 278°
2026-04-22 03:29 54.59764 88.43149 34023 ft 372 kts 278°
2026-04-22 03:30 54.60521 88.34309 34007 ft 373 kts 278°
2026-04-22 03:30 54.61266 88.25443 33985 ft 374 kts 278°
2026-04-22 03:31 54.61998 88.16622 33989 ft 374 kts 278°
2026-04-22 03:31 54.62735 88.07724 33992 ft 375 kts 278°
2026-04-22 03:32 54.63461 87.98830 33998 ft 375 kts 278°
2026-04-22 03:32 54.64183 87.89905 34002 ft 375 kts 278°
2026-04-22 03:33 54.64861 87.80971 33982 ft 376 kts 276°
2026-04-22 03:33 54.65393 87.71985 33989 ft 377 kts 276°
2026-04-22 03:34 54.66116 87.63022 33993 ft 377 kts 279°
2026-04-22 03:34 54.66967 87.54077 33991 ft 377 kts 279°
2026-04-22 03:35 54.67741 87.45143 34001 ft 378 kts 278°
2026-04-22 03:35 54.68432 87.36151 34004 ft 378 kts 277°
2026-04-22 03:36 54.69098 87.27136 33968 ft 378 kts 277°
2026-04-22 03:36 54.69768 87.18088 33975 ft 380 kts 277°
2026-04-22 03:37 54.70437 87.09019 33982 ft 381 kts 277°
2026-04-22 03:37 54.71104 86.99928 33987 ft 381 kts 277°
2026-04-22 03:38 54.71770 86.90819 34037 ft 381 kts 277°
2026-04-22 03:38 54.72426 86.81731 34033 ft 380 kts 277°
2026-04-22 03:39 54.73071 86.72666 34009 ft 380 kts 277°
2026-04-22 03:39 54.73706 86.63634 34001 ft 380 kts 277°
2026-04-22 03:40 54.74337 86.54527 34000 ft 381 kts 277°
2026-04-22 03:40 54.74965 86.45422 33997 ft 381 kts 277°
2026-04-22 03:41 54.75590 86.36307 33998 ft 381 kts 277°
2026-04-22 03:41 54.76207 86.27188 34005 ft 381 kts 277°
2026-04-22 03:42 54.76710 86.19606 33977 ft 382 kts 276°
2026-04-22 03:42 54.77309 86.10462 33978 ft 383 kts 276°
2026-04-22 03:43 54.77905 86.01288 33984 ft 384 kts 276°
2026-04-22 03:43 54.78500 85.92087 33986 ft 384 kts 276°
2026-04-22 03:44 54.79092 85.82883 33996 ft 385 kts 276°
2026-04-22 03:44 54.79676 85.73669 33998 ft 385 kts 276°
2026-04-22 03:45 54.80254 85.64447 33986 ft 385 kts 276°
2026-04-22 03:45 54.80833 85.55211 33990 ft 386 kts 276°
2026-04-22 03:46 54.81399 85.46005 33997 ft 386 kts 276°
2026-04-22 03:46 54.81953 85.36721 33998 ft 387 kts 276°
2026-04-22 03:47 54.82510 85.27438 33999 ft 387 kts 276°
2026-04-22 03:47 54.83042 85.18145 34011 ft 387 kts 275°
2026-04-22 03:48 54.83546 85.08822 33985 ft 387 kts 275°
2026-04-22 03:48 54.84040 84.99502 33979 ft 388 kts 275°
2026-04-22 03:49 54.84536 84.90226 33986 ft 389 kts 275°
2026-04-22 03:49 54.85032 84.80874 34002 ft 389 kts 275°
2026-04-22 03:50 54.85514 84.71511 34000 ft 390 kts 275°
2026-04-22 03:50 54.85991 84.62142 34010 ft 390 kts 275°
2026-04-22 03:51 54.86465 84.52766 33990 ft 390 kts 275°
2026-04-22 03:51 54.86936 84.43376 33987 ft 391 kts 275°
2026-04-22 03:52 54.87397 84.33973 33988 ft 391 kts 275°
2026-04-22 03:52 54.87842 84.24604 34038 ft 391 kts 275°
2026-04-22 03:53 54.88292 84.15204 34032 ft 390 kts 275°
2026-04-22 03:53 54.88727 84.05819 34024 ft 389 kts 274°
2026-04-22 03:54 54.89146 83.96452 34019 ft 389 kts 274°
2026-04-22 03:54 54.89558 83.87090 34009 ft 389 kts 274°
2026-04-22 03:55 54.89974 83.77781 34002 ft 389 kts 274°
2026-04-22 03:55 54.90388 83.68422 34015 ft 388 kts 274°
2026-04-22 03:56 54.90786 83.59038 34005 ft 388 kts 274°
2026-04-22 03:56 54.91175 83.49675 33998 ft 388 kts 274°
2026-04-22 03:57 54.91560 83.40350 33976 ft 389 kts 274°
2026-04-22 03:57 54.91939 83.30964 33992 ft 390 kts 274°
2026-04-22 03:58 54.92305 83.21552 33986 ft 390 kts 274°
2026-04-22 03:58 54.92983 83.12213 33983 ft 391 kts 285°
2026-04-22 03:59 54.95397 83.03710 33991 ft 398 kts 304°
2026-04-22 03:59 54.99120 82.96509 33989 ft 401 kts 308°
2026-04-22 04:00 55.02886 82.89325 33991 ft 401 kts 308°
2026-04-22 04:00 55.06609 82.82150 34017 ft 401 kts 307°
2026-04-22 04:01 55.10361 82.74929 34005 ft 401 kts 307°
2026-04-22 04:01 55.14115 82.67703 34003 ft 401 kts 307°
2026-04-22 04:02 55.17870 82.60457 34006 ft 402 kts 307°
2026-04-22 04:02 55.21596 82.53232 34007 ft 401 kts 307°
2026-04-22 04:03 55.25322 82.45957 34025 ft 401 kts 307°
2026-04-22 04:03 55.28309 82.37874 34025 ft 393 kts 290°
2026-04-22 04:04 55.29898 82.28753 34046 ft 390 kts 283°
2026-04-22 04:04 55.31296 82.19568 34035 ft 390 kts 283°
2026-04-22 04:05 55.32690 82.10374 34035 ft 389 kts 282°
2026-04-22 04:05 55.34076 82.01167 34031 ft 389 kts 282°
2026-04-22 04:06 55.35457 81.91962 34060 ft 390 kts 282°
2026-04-22 04:06 55.36139 81.87400 34305 ft 391 kts 282°
2026-04-22 04:06 55.36827 81.82759 34577 ft 391 kts 282°
2026-04-22 04:07 55.37511 81.78118 34841 ft 392 kts 283°
2026-04-22 04:07 55.38192 81.73493 35097 ft 392 kts 283°
2026-04-22 04:07 55.38878 81.68837 35359 ft 393 kts 283°
2026-04-22 04:07 55.39568 81.64174 35582 ft 394 kts 283°
2026-04-22 04:08 55.40255 81.59511 35821 ft 395 kts 283°
2026-04-22 04:08 55.40943 81.54823 35997 ft 396 kts 283°
2026-04-22 04:08 55.42305 81.45427 36029 ft 396 kts 283°
2026-04-22 04:09 55.43664 81.36032 36030 ft 396 kts 283°
2026-04-22 04:09 55.45018 81.26621 36024 ft 396 kts 282°
2026-04-22 04:10 55.46346 81.17275 36024 ft 396 kts 282°
2026-04-22 04:10 55.47676 81.07858 36039 ft 396 kts 282°
2026-04-22 04:11 55.48989 80.98421 36032 ft 396 kts 282°
2026-04-22 04:11 55.50286 80.88966 36031 ft 397 kts 282°
2026-04-22 04:12 55.51578 80.79489 36026 ft 397 kts 282°
2026-04-22 04:12 55.52866 80.70003 36026 ft 397 kts 282°
2026-04-22 04:13 55.54143 80.60519 36030 ft 397 kts 282°
2026-04-22 04:13 55.55421 80.51018 36031 ft 397 kts 282°
2026-04-22 04:14 55.56688 80.41522 36022 ft 397 kts 281°
2026-04-22 04:14 55.57943 80.32024 36025 ft 397 kts 281°
2026-04-22 04:15 55.59180 80.22560 36024 ft 397 kts 281°
2026-04-22 04:15 55.60423 80.13048 36028 ft 397 kts 281°
2026-04-22 04:16 55.62271 79.98741 36033 ft 398 kts 281°
2026-04-22 04:17 55.63399 79.89162 36040 ft 396 kts 275°
2026-04-22 04:17 55.63681 79.79417 36025 ft 397 kts 272°
2026-04-22 04:18 55.63924 79.69649 36020 ft 397 kts 272°
2026-04-22 04:18 55.64162 79.59924 36010 ft 398 kts 272°
2026-04-22 04:19 55.64386 79.50113 36011 ft 398 kts 272°
2026-04-22 04:19 55.64606 79.40319 36007 ft 398 kts 271°
2026-04-22 04:20 55.64812 79.30520 36006 ft 398 kts 271°
2026-04-22 04:20 55.65011 79.20711 36004 ft 399 kts 271°
2026-04-22 04:21 55.65202 79.10957 35996 ft 399 kts 271°
2026-04-22 04:21 55.65391 79.01119 35997 ft 399 kts 271°
2026-04-22 04:22 55.65576 78.91275 35990 ft 400 kts 271°
2026-04-22 04:22 55.65753 78.81440 35991 ft 400 kts 271°
2026-04-22 04:23 55.65911 78.71601 35975 ft 400 kts 271°
2026-04-22 04:23 55.66059 78.61744 35976 ft 400 kts 271°
2026-04-22 04:24 55.66202 78.51880 35977 ft 400 kts 271°
2026-04-22 04:24 55.66342 78.42032 35985 ft 400 kts 271°
2026-04-22 04:25 55.66477 78.32236 35985 ft 401 kts 271°
2026-04-22 04:25 55.66601 78.22371 35981 ft 401 kts 271°
2026-04-22 04:26 55.66716 78.12503 35982 ft 401 kts 270°
2026-04-22 04:26 55.66827 78.02624 35977 ft 401 kts 270°
2026-04-22 04:27 55.66936 77.92743 35977 ft 401 kts 270°
2026-04-22 04:27 55.67041 77.82874 35978 ft 401 kts 270°
2026-04-22 04:28 55.67141 77.73071 35970 ft 401 kts 270°
2026-04-22 04:28 55.67231 77.63191 35970 ft 401 kts 270°
2026-04-22 04:29 55.67300 77.53307 35957 ft 401 kts 270°
2026-04-22 04:29 55.67369 77.43433 35975 ft 401 kts 270°
2026-04-22 04:30 55.67429 77.33568 35967 ft 400 kts 270°
2026-04-22 04:30 55.67483 77.23770 35966 ft 400 kts 270°
2026-04-22 04:31 55.67536 77.13865 35964 ft 400 kts 270°
2026-04-22 04:31 55.67575 77.04076 35954 ft 399 kts 270°
2026-04-22 04:32 55.67599 76.95829 35949 ft 400 kts 269°
2026-04-22 04:32 55.67625 76.84374 35939 ft 400 kts 269°
2026-04-22 04:33 55.67640 76.74501 35940 ft 400 kts 269°
2026-04-22 04:33 55.67640 76.64647 35933 ft 400 kts 269°
2026-04-22 04:34 55.67637 76.56437 35932 ft 400 kts 269°
2026-04-22 04:34 55.67634 76.46568 35934 ft 400 kts 269°
2026-04-22 04:35 55.67619 76.36697 35917 ft 401 kts 269°
2026-04-22 04:35 55.67593 76.26818 35920 ft 401 kts 269°
2026-04-22 04:36 55.67561 76.16933 35914 ft 401 kts 269°
2026-04-22 04:36 55.67517 76.07045 35917 ft 401 kts 269°
2026-04-22 04:37 55.67461 75.97158 35911 ft 401 kts 269°
2026-04-22 04:37 55.67404 75.87326 35912 ft 401 kts 269°
2026-04-22 04:38 55.67339 75.77437 35903 ft 401 kts 269°
2026-04-22 04:38 55.67273 75.67547 35897 ft 401 kts 269°
2026-04-22 04:39 55.67499 75.57675 35897 ft 403 kts 279°
2026-04-22 04:39 55.68534 75.47907 35890 ft 403 kts 279°
2026-04-22 04:40 55.69558 75.38140 35892 ft 403 kts 278°
2026-04-22 04:40 55.70562 75.28364 35893 ft 403 kts 278°
2026-04-22 04:41 55.71561 75.18580 35879 ft 403 kts 278°
2026-04-22 04:41 55.72561 75.08780 35880 ft 403 kts 278°
2026-04-22 04:42 55.73542 74.99037 35871 ft 403 kts 278°
2026-04-22 04:42 55.74516 74.89232 35873 ft 403 kts 278°
2026-04-22 04:43 55.75483 74.79421 35875 ft 403 kts 278°
2026-04-22 04:43 55.76447 74.69608 35865 ft 403 kts 278°
2026-04-22 04:44 55.77407 74.59792 35862 ft 403 kts 278°
2026-04-22 04:44 55.78358 74.49971 35853 ft 403 kts 278°
2026-04-22 04:45 55.79299 74.40144 35855 ft 403 kts 278°
2026-04-22 04:45 55.80224 74.30370 35856 ft 403 kts 278°
2026-04-22 04:46 55.81140 74.20535 35849 ft 403 kts 278°
2026-04-22 04:46 55.82057 74.10676 35868 ft 403 kts 278°
2026-04-22 04:47 55.82965 74.00877 35842 ft 403 kts 278°
2026-04-22 04:47 55.83865 73.91017 35841 ft 403 kts 277°
2026-04-22 04:48 55.84756 73.81166 35837 ft 403 kts 277°
2026-04-22 04:48 55.85639 73.71313 35825 ft 403 kts 277°
2026-04-22 04:49 55.86519 73.61459 35822 ft 403 kts 277°
2026-04-22 04:49 55.87393 73.51603 35815 ft 403 kts 277°
2026-04-22 04:50 55.88258 73.41743 35813 ft 403 kts 277°
2026-04-22 04:50 55.89101 73.31881 35816 ft 403 kts 277°
2026-04-22 04:51 55.89933 73.22018 35810 ft 402 kts 277°
2026-04-22 04:51 55.90750 73.12155 35810 ft 402 kts 277°
2026-04-22 04:52 55.91555 73.02290 35805 ft 402 kts 277°
2026-04-22 04:52 55.92351 72.92423 35836 ft 402 kts 276°
2026-04-22 04:53 55.93144 72.82553 35822 ft 402 kts 276°
2026-04-22 04:53 55.93922 72.72753 35806 ft 401 kts 276°
2026-04-22 04:54 55.94690 72.62906 35809 ft 400 kts 276°
2026-04-22 04:54 55.95457 72.53064 35810 ft 400 kts 276°
2026-04-22 04:55 55.96223 72.43233 35812 ft 399 kts 276°
2026-04-22 04:55 55.96977 72.33418 35811 ft 399 kts 276°
2026-04-22 04:56 55.97715 72.23604 35800 ft 399 kts 276°
2026-04-22 04:56 55.98448 72.13796 35801 ft 399 kts 276°
2026-04-22 04:57 55.99174 72.03984 35790 ft 398 kts 276°
2026-04-22 04:57 55.99893 71.94240 35789 ft 398 kts 276°
2026-04-22 04:58 56.00600 71.84414 35790 ft 398 kts 276°
2026-04-22 04:58 56.01291 71.74599 35782 ft 398 kts 276°
2026-04-22 04:59 56.01984 71.64771 35809 ft 398 kts 275°
2026-04-22 04:59 56.02672 71.54945 35798 ft 398 kts 275°
2026-04-22 05:00 56.03345 71.45185 35786 ft 398 kts 275°
2026-04-22 05:00 56.04020 71.35355 35784 ft 398 kts 275°
2026-04-22 05:01 56.04686 71.25539 35780 ft 397 kts 275°
2026-04-22 05:01 56.05337 71.15713 35774 ft 397 kts 275°
2026-04-22 05:02 56.05981 71.05897 35772 ft 397 kts 275°
2026-04-22 05:02 56.06618 70.96081 35765 ft 397 kts 275°
2026-04-22 05:03 56.07253 70.86256 35761 ft 397 kts 274°
2026-04-22 05:03 56.07875 70.76449 35755 ft 396 kts 274°
2026-04-22 05:04 56.08480 70.66650 35752 ft 396 kts 274°
2026-04-22 05:04 56.09084 70.56855 35750 ft 396 kts 274°
2026-04-22 05:05 56.09680 70.47118 35742 ft 395 kts 274°
2026-04-22 05:05 56.10276 70.37323 35763 ft 396 kts 274°
2026-04-22 05:06 56.10855 70.27509 35750 ft 396 kts 273°
2026-04-22 05:06 56.11418 70.17707 35743 ft 395 kts 273°
2026-04-22 05:07 56.11989 70.07902 35740 ft 395 kts 273°
2026-04-22 05:07 56.12545 69.98171 35731 ft 395 kts 273°
2026-04-22 05:08 56.13091 69.88390 35725 ft 395 kts 273°
2026-04-22 05:08 56.13632 69.78575 35723 ft 395 kts 273°
2026-04-22 05:09 56.14155 69.68796 35713 ft 394 kts 273°
2026-04-22 05:09 56.14297 69.58994 35720 ft 392 kts 267°
2026-04-22 05:10 56.14196 69.49201 35714 ft 392 kts 267°
2026-04-22 05:10 56.14453 69.39502 35696 ft 395 kts 277°
2026-04-22 05:11 56.15487 69.29816 35694 ft 395 kts 277°
2026-04-22 05:11 56.16495 69.20107 35726 ft 395 kts 277°
2026-04-22 05:12 56.17490 69.10396 35711 ft 396 kts 277°
2026-04-22 05:12 56.18479 69.00662 35704 ft 396 kts 277°
2026-04-22 05:13 56.19463 68.90999 35700 ft 396 kts 276°
2026-04-22 05:13 56.20444 68.81266 35700 ft 396 kts 276°
2026-04-22 05:14 56.21411 68.71531 35693 ft 396 kts 276°
2026-04-22 05:14 56.22369 68.61791 35689 ft 396 kts 276°
2026-04-22 05:15 56.23327 68.52050 35692 ft 396 kts 276°
2026-04-22 05:15 56.24274 68.42305 35691 ft 396 kts 276°
2026-04-22 05:16 56.25213 68.32559 35691 ft 396 kts 276°
2026-04-22 05:16 56.26144 68.22795 35688 ft 396 kts 275°
2026-04-22 05:17 56.27066 68.13030 35712 ft 396 kts 275°
2026-04-22 05:17 56.27987 68.03242 35699 ft 397 kts 275°
2026-04-22 05:18 56.29353 67.88523 35691 ft 398 kts 275°
2026-04-22 05:18 56.30250 67.78765 35683 ft 398 kts 275°
2026-04-22 05:19 56.31139 67.68932 35687 ft 398 kts 275°
2026-04-22 05:19 56.32029 67.59081 35682 ft 398 kts 275°
2026-04-22 05:20 56.32909 67.49229 35682 ft 398 kts 274°
2026-04-22 05:20 56.33776 67.39367 35685 ft 398 kts 274°
2026-04-22 05:21 56.34644 67.29489 35691 ft 399 kts 275°
2026-04-22 05:21 56.35502 67.19684 35698 ft 398 kts 274°
2026-04-22 05:22 56.36340 67.09784 35715 ft 399 kts 274°
2026-04-22 05:22 56.37185 66.99864 35699 ft 401 kts 274°
2026-04-22 05:23 56.38033 66.89925 35697 ft 401 kts 274°
2026-04-22 05:23 56.38858 66.79954 35703 ft 402 kts 274°
2026-04-22 05:24 56.39677 66.70035 35704 ft 402 kts 274°
2026-04-22 05:24 56.40491 66.60044 35704 ft 402 kts 273°
2026-04-22 05:25 56.41294 66.50046 35707 ft 402 kts 273°
2026-04-22 05:25 56.42092 66.40045 35709 ft 402 kts 273°
2026-04-22 05:26 56.42760 66.31671 35707 ft 402 kts 273°
2026-04-22 05:26 56.43556 66.21670 35702 ft 402 kts 273°
2026-04-22 05:27 56.44342 66.11716 35738 ft 403 kts 273°
2026-04-22 05:27 56.45112 66.01655 35717 ft 404 kts 273°
2026-04-22 05:28 56.45881 65.91579 35700 ft 405 kts 273°
2026-04-22 05:28 56.46646 65.81484 35695 ft 405 kts 273°
2026-04-22 05:29 56.47395 65.71408 35698 ft 405 kts 272°
2026-04-22 05:29 56.48142 65.61300 35697 ft 405 kts 272°
2026-04-22 05:30 56.48889 65.51211 35692 ft 404 kts 272°
2026-04-22 05:30 56.49617 65.41121 35693 ft 404 kts 272°
2026-04-22 05:31 56.50331 65.31029 35691 ft 404 kts 272°
2026-04-22 05:31 56.51055 65.20923 35693 ft 404 kts 272°
2026-04-22 05:32 56.51770 65.10825 35698 ft 404 kts 272°
2026-04-22 05:32 56.52473 65.00723 35716 ft 405 kts 272°
2026-04-22 05:33 56.53158 64.90580 35692 ft 406 kts 272°
2026-04-22 05:33 56.53838 64.80460 35681 ft 408 kts 272°
2026-04-22 05:34 56.54524 64.70238 35679 ft 409 kts 272°
2026-04-22 05:34 56.55196 64.60005 35680 ft 409 kts 272°
2026-04-22 05:35 56.55854 64.49758 35683 ft 409 kts 271°
2026-04-22 05:35 56.56509 64.39503 35685 ft 409 kts 272°
2026-04-22 05:36 56.57163 64.29247 35684 ft 409 kts 271°
2026-04-22 05:36 56.57807 64.18987 35677 ft 410 kts 272°
2026-04-22 05:37 56.58439 64.08753 35678 ft 410 kts 271°
2026-04-22 05:37 56.59065 63.98452 35680 ft 411 kts 271°
2026-04-22 05:38 56.59685 63.88124 35683 ft 411 kts 271°
2026-04-22 05:38 56.60297 63.77806 35688 ft 412 kts 271°
2026-04-22 05:39 56.60896 63.67455 35695 ft 412 kts 271°
2026-04-22 05:39 56.61486 63.57170 35706 ft 412 kts 271°
2026-04-22 05:40 56.62079 63.46806 35703 ft 413 kts 271°
2026-04-22 05:40 56.62667 63.36355 35702 ft 413 kts 271°
2026-04-22 05:41 56.63245 63.26027 35699 ft 413 kts 271°
2026-04-22 05:41 56.63809 63.15652 35697 ft 413 kts 271°
2026-04-22 05:42 56.64369 63.05253 35696 ft 413 kts 271°
2026-04-22 05:42 56.64927 62.94837 35716 ft 414 kts 271°
2026-04-22 05:43 56.65472 62.84405 35709 ft 416 kts 271°
2026-04-22 05:43 56.66004 62.73919 35701 ft 417 kts 271°
2026-04-22 05:44 56.66530 62.63421 35698 ft 417 kts 271°
2026-04-22 05:44 56.67052 62.52974 35701 ft 418 kts 271°
2026-04-22 05:45 56.67561 62.42441 35707 ft 418 kts 271°
2026-04-22 05:45 56.68057 62.31895 35712 ft 419 kts 271°
2026-04-22 05:46 56.68555 62.21340 35721 ft 419 kts 271°
2026-04-22 05:46 56.69046 62.10781 35710 ft 419 kts 271°
2026-04-22 05:47 56.69524 62.00217 35713 ft 419 kts 271°
2026-04-22 05:47 56.69991 61.89634 35714 ft 419 kts 271°
2026-04-22 05:48 56.70451 61.79078 35707 ft 419 kts 271°
2026-04-22 05:48 56.70911 61.68501 35703 ft 419 kts 271°
2026-04-22 05:49 56.71346 61.57905 35703 ft 419 kts 271°
2026-04-22 05:49 56.71770 61.47319 35703 ft 419 kts 271°
2026-04-22 05:50 56.72196 61.36737 35716 ft 418 kts 271°
2026-04-22 05:50 56.72615 61.26258 35714 ft 417 kts 271°
2026-04-22 05:51 56.73016 61.15724 35701 ft 417 kts 271°
2026-04-22 05:51 56.73405 61.05191 35708 ft 416 kts 271°
2026-04-22 05:52 56.73791 60.94688 35704 ft 416 kts 271°
2026-04-22 05:52 56.74171 60.84162 35719 ft 416 kts 270°
2026-04-22 05:53 56.74627 60.73646 35711 ft 417 kts 273°
2026-04-22 05:53 56.75396 60.63159 35707 ft 418 kts 275°
2026-04-22 05:54 56.76229 60.52679 35699 ft 418 kts 275°
2026-04-22 05:54 56.76991 60.42188 35697 ft 417 kts 274°
2026-04-22 05:55 56.77686 60.31757 35696 ft 417 kts 274°
2026-04-22 05:55 56.78374 60.21250 35696 ft 417 kts 274°
2026-04-22 05:56 56.79069 60.10739 35701 ft 417 kts 273°
2026-04-22 05:56 56.79724 60.00220 35692 ft 417 kts 273°
2026-04-22 05:57 56.80346 59.89680 35710 ft 418 kts 273°
2026-04-22 05:57 56.80964 59.79090 35698 ft 420 kts 273°
2026-04-22 05:58 56.81581 59.68539 35697 ft 420 kts 273°
2026-04-22 05:58 56.82203 59.57895 35703 ft 421 kts 273°
2026-04-22 05:59 56.82812 59.47262 35704 ft 421 kts 273°
2026-04-22 05:59 56.83405 59.36622 35706 ft 421 kts 273°
2026-04-22 06:00 56.83991 59.25970 35710 ft 422 kts 273°
2026-04-22 06:00 56.84566 59.15358 35715 ft 422 kts 273°
2026-04-22 06:01 56.85115 59.04693 35717 ft 421 kts 271°
2026-04-22 06:01 56.85389 58.94003 35724 ft 421 kts 269°
2026-04-22 06:02 56.85500 58.83292 35714 ft 422 kts 269°
2026-04-22 06:02 56.85633 58.72562 35719 ft 423 kts 269°
2026-04-22 06:03 56.85807 58.61815 35722 ft 423 kts 270°
2026-04-22 06:03 56.85982 58.51053 35719 ft 423 kts 270°
2026-04-22 06:04 56.86145 58.40373 35726 ft 423 kts 269°
2026-04-22 06:04 56.86293 58.29622 35726 ft 423 kts 269°
2026-04-22 06:05 56.86421 58.18871 35732 ft 423 kts 269°
2026-04-22 06:05 56.86540 58.08117 35728 ft 423 kts 269°
2026-04-22 06:06 56.86658 57.97361 35727 ft 423 kts 269°
2026-04-22 06:06 56.86772 57.86592 35732 ft 424 kts 269°
2026-04-22 06:07 56.86871 57.75802 35723 ft 425 kts 269°
2026-04-22 06:07 56.86962 57.64997 35712 ft 425 kts 269°
2026-04-22 06:08 56.87043 57.54147 35712 ft 425 kts 269°
2026-04-22 06:08 56.87123 57.43330 35714 ft 426 kts 269°
2026-04-22 06:09 56.87197 57.32591 35702 ft 426 kts 269°
2026-04-22 06:09 56.87257 57.21752 35694 ft 426 kts 269°
2026-04-22 06:10 56.87303 57.10923 35698 ft 426 kts 269°
2026-04-22 06:10 56.87340 57.00083 35700 ft 426 kts 269°
2026-04-22 06:11 56.87365 56.89255 35726 ft 426 kts 269°
2026-04-22 06:11 56.87380 56.78416 35711 ft 427 kts 269°
2026-04-22 06:12 56.87389 56.67621 35708 ft 427 kts 269°
2026-04-22 06:12 56.87389 56.56765 35704 ft 428 kts 269°
2026-04-22 06:13 56.87372 56.45877 35686 ft 428 kts 269°
2026-04-22 06:13 56.87416 56.34995 35689 ft 428 kts 270°
2026-04-22 06:14 56.87547 56.24095 35684 ft 428 kts 270°
2026-04-22 06:14 56.87680 56.13203 35685 ft 428 kts 270°
2026-04-22 06:15 56.87776 56.02299 35681 ft 428 kts 269°
2026-04-22 06:15 56.87839 55.91479 35685 ft 428 kts 269°
2026-04-22 06:16 56.87798 55.80576 35695 ft 428 kts 268°
2026-04-22 06:16 56.87626 55.69686 35689 ft 429 kts 267°
2026-04-22 06:17 56.87472 55.60621 35686 ft 429 kts 268°
2026-04-22 06:17 56.87308 55.49720 35685 ft 429 kts 268°
2026-04-22 06:18 56.87148 55.38816 35694 ft 429 kts 268°
2026-04-22 06:18 56.86983 55.27897 35697 ft 429 kts 268°
2026-04-22 06:19 56.86804 55.16991 35690 ft 429 kts 267°
2026-04-22 06:19 56.86612 55.06070 35691 ft 430 kts 267°
2026-04-22 06:20 56.86406 54.95156 35698 ft 430 kts 267°
2026-04-22 06:20 56.86193 54.84298 35697 ft 430 kts 267°
2026-04-22 06:21 56.85981 54.73372 35729 ft 430 kts 267°
2026-04-22 06:21 56.85757 54.62450 35723 ft 431 kts 267°
2026-04-22 06:22 56.85554 54.51504 35720 ft 431 kts 268°
2026-04-22 06:22 56.85416 54.40533 35710 ft 431 kts 268°
2026-04-22 06:23 56.85281 54.29566 35711 ft 432 kts 268°
2026-04-22 06:23 56.85116 54.18593 35724 ft 432 kts 268°
2026-04-22 06:24 56.84820 54.02124 35730 ft 432 kts 267°
2026-04-22 06:25 56.84553 53.91145 35734 ft 432 kts 266°
2026-04-22 06:25 56.84266 53.80248 35735 ft 432 kts 266°
2026-04-22 06:26 56.83980 53.69275 35731 ft 433 kts 266°
2026-04-22 06:26 56.83698 53.58296 35733 ft 433 kts 266°
2026-04-22 06:27 56.83408 53.47299 35733 ft 433 kts 266°
2026-04-22 06:27 56.83244 53.36288 35739 ft 434 kts 269°
2026-04-22 06:28 56.83300 53.25275 35738 ft 434 kts 270°
2026-04-22 06:28 56.83369 53.14261 35746 ft 434 kts 269°
2026-04-22 06:29 56.83367 53.03310 35747 ft 434 kts 269°
2026-04-22 06:29 56.83328 52.92293 35734 ft 434 kts 269°
2026-04-22 06:30 56.83264 52.81254 35737 ft 434 kts 268°
2026-04-22 06:30 56.83190 52.70221 35756 ft 435 kts 268°
2026-04-22 06:31 56.83111 52.59179 35752 ft 435 kts 268°
2026-04-22 06:31 56.83023 52.48127 35753 ft 435 kts 268°
2026-04-22 06:32 56.82917 52.37073 35746 ft 435 kts 268°
2026-04-22 06:32 56.82795 52.26016 35752 ft 436 kts 268°
2026-04-22 06:33 56.82690 52.15026 35740 ft 436 kts 269°
2026-04-22 06:33 56.82818 52.03873 35741 ft 437 kts 271°
2026-04-22 06:34 56.83057 51.92867 35744 ft 437 kts 271°
2026-04-22 06:34 56.83250 51.81779 35745 ft 437 kts 270°
2026-04-22 06:35 56.83382 51.70674 35762 ft 437 kts 270°
2026-04-22 06:35 56.83493 51.59574 35762 ft 437 kts 270°
2026-04-22 06:36 56.83497 51.48471 35756 ft 437 kts 267°
2026-04-22 06:36 56.83101 51.37394 35755 ft 437 kts 265°
2026-04-22 06:37 56.82567 51.26337 35760 ft 437 kts 264°
2026-04-22 06:37 56.82076 51.15336 35763 ft 437 kts 265°
2026-04-22 06:38 56.81636 51.04265 35764 ft 437 kts 265°
2026-04-22 06:38 56.81199 50.93194 35763 ft 437 kts 265°
2026-04-22 06:39 56.80741 50.82116 35762 ft 437 kts 265°
2026-04-22 06:39 56.80268 50.71037 35767 ft 438 kts 265°
2026-04-22 06:40 56.79783 50.60036 35756 ft 438 kts 265°
2026-04-22 06:40 56.79295 50.48936 35767 ft 438 kts 265°
2026-04-22 06:41 56.78796 50.37848 35764 ft 439 kts 265°
2026-04-22 06:41 56.78284 50.26747 35765 ft 439 kts 265°
2026-04-22 06:42 56.77763 50.15656 35771 ft 439 kts 265°
2026-04-22 06:42 56.77232 50.04563 35760 ft 439 kts 264°
2026-04-22 06:43 56.76694 49.93533 35767 ft 440 kts 264°
2026-04-22 06:43 56.76136 49.82421 35773 ft 440 kts 264°
2026-04-22 06:44 56.75725 49.71280 35798 ft 441 kts 267°
2026-04-22 06:44 56.75501 49.60096 35790 ft 441 kts 268°
2026-04-22 06:45 56.75263 49.48902 35782 ft 442 kts 267°
2026-04-22 06:45 56.74958 49.37785 35780 ft 442 kts 266°
2026-04-22 06:46 56.74616 49.26602 35782 ft 442 kts 266°
2026-04-22 06:46 56.74276 49.15416 35786 ft 442 kts 266°
2026-04-22 06:47 56.73934 49.04228 35785 ft 442 kts 266°
2026-04-22 06:47 56.73578 48.93043 35781 ft 442 kts 266°
2026-04-22 06:48 56.73220 48.81875 35788 ft 442 kts 266°
2026-04-22 06:48 56.72843 48.70691 35782 ft 442 kts 266°
2026-04-22 06:49 56.72449 48.59495 35774 ft 442 kts 266°
2026-04-22 06:49 56.72057 48.48390 35771 ft 443 kts 266°
2026-04-22 06:50 56.71655 48.37136 35772 ft 443 kts 266°
2026-04-22 06:50 56.71253 48.26019 35768 ft 443 kts 266°
2026-04-22 06:51 56.70832 48.14828 35773 ft 443 kts 266°
2026-04-22 06:51 56.70392 48.03625 35774 ft 443 kts 266°
2026-04-22 06:52 56.69947 47.92433 35765 ft 443 kts 266°
2026-04-22 06:52 56.69495 47.81223 35769 ft 444 kts 266°
2026-04-22 06:53 56.69032 47.70008 35765 ft 445 kts 266°
2026-04-22 06:53 56.68557 47.58791 35766 ft 445 kts 265°
2026-04-22 06:54 56.68078 47.47635 35773 ft 445 kts 265°
2026-04-22 06:54 56.67581 47.36404 35783 ft 446 kts 265°
2026-04-22 06:55 56.66485 47.25326 35775 ft 446 kts 251°
2026-04-22 06:55 56.64356 47.14720 35777 ft 447 kts 250°
2026-04-22 06:56 56.62216 47.04090 35797 ft 447 kts 251°
2026-04-22 06:56 56.60085 46.93492 35785 ft 447 kts 250°
2026-04-22 06:57 56.57954 46.82962 35784 ft 447 kts 250°
2026-04-22 06:57 56.55801 46.72392 35800 ft 447 kts 250°
2026-04-22 06:58 56.53631 46.61839 35776 ft 447 kts 250°
2026-04-22 06:58 56.51455 46.51298 35783 ft 447 kts 250°
2026-04-22 06:59 56.49272 46.40753 35777 ft 448 kts 250°
2026-04-22 06:59 56.47079 46.30202 35777 ft 448 kts 250°
2026-04-22 07:00 56.44884 46.19714 35779 ft 449 kts 250°
2026-04-22 07:00 56.42656 46.09167 35772 ft 449 kts 250°
2026-04-22 07:01 56.40425 45.98623 35781 ft 449 kts 250°
2026-04-22 07:01 56.38191 45.88108 35783 ft 449 kts 250°
2026-04-22 07:02 56.35942 45.77578 35788 ft 449 kts 250°
2026-04-22 07:02 56.33682 45.67071 35787 ft 449 kts 249°
2026-04-22 07:03 56.31408 45.56577 35789 ft 450 kts 249°
2026-04-22 07:03 56.29121 45.46107 35783 ft 450 kts 249°
2026-04-22 07:04 56.26824 45.35617 35786 ft 450 kts 249°
2026-04-22 07:04 56.24542 45.25198 35789 ft 450 kts 249°
2026-04-22 07:05 56.22237 45.14726 35793 ft 451 kts 249°
2026-04-22 07:05 56.19922 45.04251 35794 ft 450 kts 249°
2026-04-22 07:06 56.17607 44.93796 35792 ft 451 kts 249°
2026-04-22 07:06 56.15277 44.83328 35791 ft 452 kts 249°
2026-04-22 07:07 56.12923 44.72872 35787 ft 452 kts 249°
2026-04-22 07:07 56.11078 44.62126 35788 ft 451 kts 263°
2026-04-22 07:08 56.10406 44.50963 35790 ft 451 kts 265°
2026-04-22 07:08 56.09747 44.39882 35783 ft 451 kts 264°
2026-04-22 07:09 56.09062 44.28706 35790 ft 451 kts 264°
2026-04-22 07:09 56.08373 44.17519 35793 ft 452 kts 264°
2026-04-22 07:10 56.07668 44.06318 35792 ft 452 kts 264°
2026-04-22 07:10 56.07073 43.97030 35808 ft 452 kts 264°
2026-04-22 07:11 56.06230 43.84038 35801 ft 452 kts 264°
2026-04-22 07:11 56.05616 43.74664 35800 ft 453 kts 264°
2026-04-22 07:12 56.04874 43.63461 35799 ft 454 kts 264°
2026-04-22 07:12 56.04126 43.52326 35801 ft 454 kts 264°
2026-04-22 07:13 56.03361 43.41112 35803 ft 454 kts 264°
2026-04-22 07:13 56.02913 43.29862 35804 ft 453 kts 273°
2026-04-22 07:14 56.03112 43.18593 35813 ft 453 kts 272°
2026-04-22 07:14 56.03302 43.07334 35813 ft 453 kts 272°
2026-04-22 07:15 56.03478 42.96077 35813 ft 453 kts 272°
2026-04-22 07:15 56.03637 42.84812 35813 ft 453 kts 272°
2026-04-22 07:16 56.03785 42.73539 35816 ft 453 kts 272°
2026-04-22 07:16 56.03911 42.62328 35815 ft 453 kts 272°
2026-04-22 07:17 56.03320 42.51124 35813 ft 455 kts 256°
2026-04-22 07:17 56.01100 42.40510 35815 ft 457 kts 249°
2026-04-22 07:18 55.98702 42.29995 35826 ft 457 kts 249°
2026-04-22 07:18 55.96291 42.19479 35821 ft 458 kts 249°
2026-04-22 07:19 55.93860 42.08958 35825 ft 458 kts 249°
2026-04-22 07:19 55.91450 41.98515 35823 ft 459 kts 249°
2026-04-22 07:20 55.89004 41.88002 35828 ft 459 kts 249°
2026-04-22 07:20 55.86932 41.77268 35830 ft 457 kts 261°
2026-04-22 07:21 55.86423 41.66030 35831 ft 455 kts 268°
2026-04-22 07:21 55.86091 41.54763 35832 ft 456 kts 268°
2026-04-22 07:22 55.85732 41.43572 35835 ft 456 kts 268°
2026-04-22 07:22 55.85365 41.32289 35841 ft 456 kts 268°
2026-04-22 07:23 55.84998 41.21017 35841 ft 456 kts 268°
2026-04-22 07:23 55.84615 41.09730 35833 ft 457 kts 268°
2026-04-22 07:24 55.84225 40.98445 35837 ft 457 kts 268°
2026-04-22 07:24 55.83823 40.87157 35837 ft 457 kts 268°
2026-04-22 07:25 55.83411 40.75943 35836 ft 457 kts 268°
2026-04-22 07:25 55.82986 40.64636 35818 ft 458 kts 268°
2026-04-22 07:25 55.82769 40.58983 35564 ft 458 kts 268°
2026-04-22 07:26 55.82545 40.53294 34757 ft 464 kts 268°
2026-04-22 07:26 55.82313 40.47542 33889 ft 470 kts 268°
2026-04-22 07:26 55.82076 40.41711 32846 ft 474 kts 268°
2026-04-22 07:26 55.81841 40.35855 31879 ft 477 kts 269°
2026-04-22 07:27 55.81603 40.29947 30955 ft 480 kts 269°
2026-04-22 07:27 55.81364 40.24079 29950 ft 485 kts 270°
2026-04-22 07:27 55.81112 40.18053 28731 ft 490 kts 269°
2026-04-22 07:27 55.80851 40.12010 27687 ft 490 kts 269°
2026-04-22 07:28 55.80318 39.99984 26023 ft 478 kts 268°
2026-04-22 07:28 55.80047 39.94198 25889 ft 460 kts 268°
2026-04-22 07:28 55.79781 39.88627 25756 ft 443 kts 269°
2026-04-22 07:29 55.79529 39.83270 25628 ft 428 kts 269°
2026-04-22 07:29 55.79277 39.78089 25469 ft 414 kts 268°
2026-04-22 07:29 55.78981 39.73068 25212 ft 405 kts 267°
2026-04-22 07:29 55.78650 39.68131 24961 ft 400 kts 266°
2026-04-22 07:30 55.78309 39.63307 24713 ft 397 kts 266°
2026-04-22 07:30 55.77965 39.58456 24472 ft 395 kts 266°
2026-04-22 07:30 55.77624 39.53603 24200 ft 396 kts 267°
2026-04-22 07:30 55.77288 39.48759 23950 ft 395 kts 267°
2026-04-22 07:31 55.76954 39.43930 23729 ft 394 kts 267°
2026-04-22 07:31 55.76625 39.39111 23495 ft 392 kts 267°
2026-04-22 07:31 55.76297 39.34327 23221 ft 390 kts 267°
2026-04-22 07:31 55.75968 39.29561 22920 ft 387 kts 266°
2026-04-22 07:32 55.75637 39.24828 22640 ft 385 kts 266°
2026-04-22 07:32 55.75305 39.20135 22360 ft 382 kts 266°
2026-04-22 07:32 55.74973 39.15473 22082 ft 380 kts 266°
2026-04-22 07:32 55.74647 39.10889 21856 ft 378 kts 266°
2026-04-22 07:33 55.74315 39.06266 21822 ft 377 kts 266°
2026-04-22 07:33 55.73978 39.01642 21828 ft 377 kts 266°
2026-04-22 07:33 55.73837 38.97031 21648 ft 369 kts 279°
2026-04-22 07:33 55.74430 38.92676 21146 ft 358 kts 296°
2026-04-22 07:34 55.75440 38.88660 20639 ft 356 kts 297°
2026-04-22 07:34 55.76447 38.84671 20153 ft 353 kts 297°
2026-04-22 07:34 55.77442 38.80704 19673 ft 351 kts 297°
2026-04-22 07:34 55.78427 38.76750 19217 ft 348 kts 297°
2026-04-22 07:35 55.79398 38.72830 18775 ft 346 kts 296°
2026-04-22 07:35 55.80361 38.68927 18351 ft 343 kts 296°
2026-04-22 07:35 55.81315 38.65052 17899 ft 340 kts 296°
2026-04-22 07:35 55.82262 38.61206 17414 ft 338 kts 296°
2026-04-22 07:36 55.83197 38.57402 16940 ft 335 kts 296°
2026-04-22 07:36 55.84127 38.53614 16476 ft 332 kts 296°
2026-04-22 07:36 55.85047 38.49863 16032 ft 330 kts 296°
2026-04-22 07:36 55.85948 38.46177 15608 ft 328 kts 296°
2026-04-22 07:37 55.86852 38.42466 15183 ft 325 kts 295°
2026-04-22 07:37 55.87749 38.38790 14760 ft 323 kts 295°
2026-04-22 07:37 55.88640 38.35131 14348 ft 321 kts 295°
2026-04-22 07:37 55.89524 38.31493 13923 ft 318 kts 295°
2026-04-22 07:38 55.90400 38.27877 13496 ft 317 kts 295°
2026-04-22 07:38 55.91269 38.24281 13046 ft 314 kts 295°
2026-04-22 07:38 55.92129 38.20718 12597 ft 312 kts 295°
2026-04-22 07:38 55.92985 38.17168 12165 ft 310 kts 295°
2026-04-22 07:39 55.93826 38.13673 11853 ft 304 kts 295°
2026-04-22 07:39 55.94651 38.10238 11538 ft 298 kts 295°
2026-04-22 07:39 55.95455 38.06887 11331 ft 289 kts 295°
2026-04-22 07:39 55.96229 38.03656 11153 ft 285 kts 295°
2026-04-22 07:40 55.97004 38.00419 10974 ft 283 kts 295°
2026-04-22 07:40 55.97780 37.97176 10802 ft 282 kts 295°
2026-04-22 07:40 55.98550 37.93951 10613 ft 282 kts 295°
2026-04-22 07:40 55.99314 37.90739 10440 ft 281 kts 295°
2026-04-22 07:41 56.00077 37.87528 10269 ft 280 kts 295°
2026-04-22 07:41 56.00836 37.84332 10146 ft 280 kts 295°
2026-04-22 07:41 56.01634 37.81166 10013 ft 278 kts 301°
2026-04-22 07:41 56.02788 37.78445 9855 ft 273 kts 317°
2026-04-22 07:42 56.04243 37.76366 9424 ft 271 kts 328°
2026-04-22 07:42 56.05875 37.74703 8980 ft 269 kts 333°
2026-04-22 07:42 56.07514 37.73125 8496 ft 266 kts 333°
2026-04-22 07:42 56.09148 37.71588 7860 ft 264 kts 334°
2026-04-22 07:43 56.10757 37.70033 7227 ft 262 kts 325°
2026-04-22 07:43 56.11934 37.67579 6644 ft 262 kts 296°
2026-04-22 07:43 56.12288 37.64379 6157 ft 266 kts 267°
2026-04-22 07:43 56.11721 37.61239 5786 ft 267 kts 237°
2026-04-22 07:44 56.10386 37.59036 5641 ft 259 kts 207°
2026-04-22 07:44 56.08680 37.58318 5501 ft 250 kts 176°
2026-04-22 07:44 56.07080 37.59208 5381 ft 236 kts 144°
2026-04-22 07:44 56.06067 37.61321 5244 ft 218 kts 110°
2026-04-22 07:45 56.05886 37.63857 5048 ft 205 kts 78°
2026-04-22 07:45 56.06361 37.66215 4832 ft 202 kts 62°
2026-04-22 07:45 56.06951 37.68502 4623 ft 202 kts 62°
2026-04-22 07:45 56.07248 37.70960 4397 ft 207 kts 92°
2026-04-22 07:46 56.06720 37.73336 4185 ft 211 kts 129°
2026-04-22 07:46 56.05508 37.74759 3974 ft 211 kts 166°
2026-04-22 07:46 56.04063 37.74729 3778 ft 209 kts 193°
2026-04-22 07:46 56.02722 37.73827 3572 ft 201 kts 217°
2026-04-22 07:47 56.01833 37.72025 3375 ft 191 kts 245°
2026-04-22 07:47 56.01435 37.69819 3154 ft 186 kts 258°
2026-04-22 07:47 56.01108 37.67592 2913 ft 185 kts 257°
2026-04-22 07:47 56.00781 37.65377 2684 ft 185 kts 257°
2026-04-22 07:48 56.00457 37.63197 2443 ft 174 kts 257°
2026-04-22 07:48 56.00166 37.61248 2301 ft 151 kts 258°
2026-04-22 07:48 55.99905 37.59497 2186 ft 142 kts 258°
2026-04-22 07:48 55.99656 37.57817 2060 ft 138 kts 257°
2026-04-22 07:49 55.99412 37.56160 1964 ft 138 kts 257°
2026-04-22 07:49 55.99166 37.54499 1772 ft 138 kts 258°
2026-04-22 07:49 55.98921 37.52838 1579 ft 138 kts 257°
2026-04-22 07:49 55.98662 37.51216 1422 ft 137 kts 254°
2026-04-22 07:50 55.98341 37.49587 1263 ft 138 kts 257°
2026-04-22 07:50 55.98094 37.47949 1114 ft 139 kts 258°
2026-04-22 07:50 55.97853 37.46274 908 ft 139 kts 257°
2026-04-22 07:50 55.97605 37.44602 697 ft 139 kts 258°
2026-04-22 07:51 55.97373 37.42990 645 ft 120 kts 255°
2026-04-22 07:51 55.97209 37.41917 644 ft 63 kts 255°
2026-04-22 07:51 55.97147 37.41497 642 ft 14 kts 255°
2026-04-22 07:51 55.97143 37.41370 643 ft 8 kts 308°
2026-04-22 07:52 55.97196 37.41333 640 ft 8 kts 345°
2026-04-22 07:52 55.97267 37.41298 639 ft 15 kts 345°
2026-04-22 07:52 55.97371 37.41248 640 ft 15 kts 345°
2026-04-22 07:52 55.97472 37.41200 642 ft 15 kts 345°
2026-04-22 07:53 55.97537 37.41206 639 ft 8 kts 64°
2026-04-22 07:53 55.97555 37.41324 642 ft 14 kts 75°
2026-04-22 07:53 55.97586 37.41528 644 ft 12 kts 74°
2026-04-22 07:53 55.97630 37.41601 639 ft 9 kts
2026-04-22 07:54 55.97692 37.41576 639 ft 9 kts 345°
2026-04-22 07:54 55.97751 37.41579 645 ft 8 kts 352°
2026-04-22 07:54 55.97807 37.41553 643 ft 8 kts 345°
2026-04-22 07:54 55.97865 37.41526 644 ft 9 kts 345°
2026-04-22 07:55 55.97927 37.41498 642 ft 9 kts 353°
2026-04-22 07:55 55.97954 37.41568 641 ft 7 kts 76°
2026-04-22 07:55 55.97960 37.41611 643 ft 1 kts 76°
2026-04-22 07:55 55.97961 37.41620 642 ft 0 kts 76°